Tracking 20623 objects as of 4-Apr-2020
HD Live streaming from Space Station
objects crossing your sky now

ONEWEB-0045

Track ONEWEB-0045 now!
10-day predictions
ONEWEB-0045 is classified as:


NORAD ID: 45151
Int'l Code: 2020-008W
Perigee: 642.2 km
Apogee: 668.3 km
Inclination: 87.5 °
Period: 97.7 minutes
Semi major axis: 7026 km
RCS: Unknown
Launch date: February 6, 2020
Source: United Kingdom (UK)
Launch site: TYURATAM MISSILE AND SPACE COMPLEX (TTMTR)
aabbcc
Your satellite tracking list
Your tracking list is empty




NASA's NSSDC Master Catalog

Two Line Element Set (TLE):
1 45151U 20008W   20094.76430373 -.00299056  00000-0 -47384-1 0  9994
2 45151  87.4570 145.1539 0018566  87.0294 273.3049 14.74073039  9390
Source of the keplerian elements: AFSPC